TimeCDT,TemperatureF,Dew PointF,Humidity,Sea Level PressureIn,VisibilityMPH,Wind Direction,Wind SpeedMPH,Gust SpeedMPH,PrecipitationIn,Events,Conditions,WindDirDegrees,DateUTC
12:13 AM,77.0,71.6,83,29.80,7.0,SSE,8.1,-,N/A,,Clear,160,2013-08-21 05:13:00
12:33 AM,77.0,71.6,83,29.80,7.0,South,9.2,-,N/A,,Clear,170,2013-08-21 05:33:00
12:54 AM,77.0,71.6,83,29.81,7.0,South,6.9,-,N/A,,Clear,180,2013-08-21 05:54:00
1:13 AM,75.2,71.6,89,29.81,7.0,South,6.9,-,N/A,,Clear,190,2013-08-21 06:13:00
1:33 AM,75.2,71.6,89,29.81,5.0,South,6.9,-,N/A,,Clear,180,2013-08-21 06:33:00
1:53 AM,75.2,71.6,89,29.80,5.0,South,8.1,-,N/A,,Clear,180,2013-08-21 06:53:00
2:13 AM,75.2,71.6,89,29.80,5.0,South,6.9,-,N/A,,Clear,190,2013-08-21 07:13:00
2:33 AM,75.2,71.6,89,29.80,5.0,South,6.9,-,N/A,,Clear,180,2013-08-21 07:33:00
2:54 AM,75.2,71.6,89,29.79,5.0,SSE,3.5,-,N/A,,Clear,160,2013-08-21 07:54:00
3:13 AM,73.4,69.8,88,29.80,4.0,Calm,Calm,-,N/A,,Clear,0,2013-08-21 08:13:00
3:33 AM,73.4,71.6,94,29.79,5.0,Calm,Calm,-,N/A,,Clear,0,2013-08-21 08:33:00
3:53 AM,73.4,69.8,88,29.80,4.0,Calm,Calm,-,N/A,,Clear,0,2013-08-21 08:53:00
4:13 AM,73.4,69.8,88,29.80,4.0,Calm,Calm,-,N/A,,Clear,0,2013-08-21 09:13:00
4:33 AM,73.4,69.8,88,29.79,3.0,SE,3.5,-,N/A,,Clear,140,2013-08-21 09:33:00
4:53 AM,73.4,69.8,88,29.79,3.0,Calm,Calm,-,N/A,,Clear,0,2013-08-21 09:53:00
5:13 AM,71.6,66.2,83,29.80,3.0,Calm,Calm,-,N/A,,Clear,0,2013-08-21 10:13:00
5:33 AM,71.6,68.0,88,29.81,1.0,Calm,Calm,-,N/A,,Clear,0,2013-08-21 10:33:00
5:54 AM,69.8,66.2,88,29.81,0.5,Calm,Calm,-,N/A,Fog,Fog,0,2013-08-21 10:54:00
6:13 AM,69.8,66.2,88,29.82,0.8,Calm,Calm,-,N/A,,Mostly Cloudy,0,2013-08-21 11:13:00
6:33 AM,69.8,66.2,88,29.82,1.5,Calm,Calm,-,N/A,,Mostly Cloudy,0,2013-08-21 11:33:00
6:53 AM,68.0,64.4,88,29.83,0.5,Calm,Calm,-,N/A,Fog,Fog,0,2013-08-21 11:53:00
7:13 AM,69.8,66.2,88,29.84,1.5,Calm,Calm,-,N/A,,Mostly Cloudy,0,2013-08-21 12:13:00
7:33 AM,71.6,69.8,94,29.85,3.0,SW,8.1,-,N/A,,Mostly Cloudy,220,2013-08-21 12:33:00
7:53 AM,73.4,71.6,94,29.86,4.0,West,5.8,-,N/A,,Mostly Cloudy,270,2013-08-21 12:53:00
8:13 AM,73.4,71.6,94,29.87,4.0,WNW,6.9,-,N/A,,Scattered Clouds,290,2013-08-21 13:13:00
8:33 AM,75.2,71.6,89,29.87,5.0,WNW,5.8,-,N/A,,Overcast,290,2013-08-21 13:33:00
8:53 AM,75.2,71.6,89,29.88,5.0,NW,6.9,-,N/A,,Scattered Clouds,320,2013-08-21 13:53:00
9:13 AM,77.0,71.6,83,29.88,7.0,NNW,11.5,-,N/A,,Clear,330,2013-08-21 14:13:00
9:34 AM,77.0,71.6,83,29.89,7.0,NNW,10.4,-,N/A,,Scattered Clouds,340,2013-08-21 14:34:00
9:53 AM,78.8,71.6,78,29.90,7.0,NNW,11.5,-,N/A,,Scattered Clouds,330,2013-08-21 14:53:00
10:15 AM,75.2,68.0,78,29.91,10.0,NNW,11.5,-,N/A,,Overcast,340,2013-08-21 15:15:00
10:33 AM,75.2,66.2,73,29.92,10.0,NNW,9.2,-,N/A,,Overcast,330,2013-08-21 15:33:00
10:54 AM,75.2,68.0,78,29.92,7.0,NW,6.9,-,N/A,,Overcast,320,2013-08-21 15:54:00
11:13 AM,78.8,69.8,74,29.92,10.0,NNW,6.9,-,N/A,,Scattered Clouds,340,2013-08-21 16:13:00
11:34 AM,80.6,69.8,70,29.92,10.0,North,5.8,-,N/A,,Clear,350,2013-08-21 16:34:00
11:54 AM,80.6,69.8,70,29.93,10.0,North,5.8,-,N/A,,Clear,350,2013-08-21 16:54:00
12:14 PM,80.6,69.8,70,29.92,10.0,NNE,6.9,-,N/A,,Clear,30,2013-08-21 17:14:00
12:34 PM,84.2,69.8,62,29.93,10.0,East,3.5,-,N/A,,Clear,80,2013-08-21 17:34:00
12:54 PM,84.2,69.8,62,29.92,10.0,North,5.8,-,N/A,,Clear,360,2013-08-21 17:54:00
1:14 PM,86.0,69.8,58,29.93,10.0,NNE,11.5,-,N/A,,Clear,20,2013-08-21 18:14:00
1:33 PM,87.8,69.8,55,29.94,10.0,NNW,9.2,-,N/A,,Clear,330,2013-08-21 18:33:00
1:53 PM,87.8,68.0,52,29.94,10.0,North,6.9,-,N/A,,Clear,360,2013-08-21 18:53:00
2:14 PM,87.8,68.0,52,29.95,10.0,NW,4.6,-,N/A,,Clear,320,2013-08-21 19:14:00
2:33 PM,89.6,64.4,43,29.95,10.0,North,6.9,-,N/A,,Clear,10,2013-08-21 19:33:00
2:54 PM,89.6,62.6,40,29.95,10.0,NE,9.2,-,N/A,,Clear,40,2013-08-21 19:54:00
3:13 PM,91.4,62.6,38,29.95,10.0,NNE,9.2,-,N/A,,Clear,20,2013-08-21 20:13:00
3:33 PM,91.4,59.0,34,29.95,10.0,NE,10.4,-,N/A,,Clear,40,2013-08-21 20:33:00
3:53 PM,91.4,57.2,31,29.95,7.0,North,13.8,17.3,N/A,,Clear,10,2013-08-21 20:53:00
4:13 PM,91.4,59.0,34,29.95,10.0,NE,10.4,-,N/A,,Clear,40,2013-08-21 21:13:00
4:34 PM,89.6,59.0,36,29.95,10.0,NE,8.1,-,N/A,,Clear,40,2013-08-21 21:34:00
4:53 PM,89.6,59.0,36,29.95,10.0,NNE,8.1,-,N/A,,Clear,30,2013-08-21 21:53:00
5:13 PM,89.6,57.2,33,29.95,10.0,NE,9.2,-,N/A,,Clear,40,2013-08-21 22:13:00
5:34 PM,89.6,57.2,33,29.95,10.0,NNE,6.9,-,N/A,,Clear,20,2013-08-21 22:34:00
5:53 PM,87.8,60.8,40,29.95,10.0,NE,5.8,-,N/A,,Clear,40,2013-08-21 22:53:00
6:13 PM,86.0,60.8,43,29.95,10.0,NNE,6.9,-,N/A,,Clear,20,2013-08-21 23:13:00
6:33 PM,86.0,59.0,40,29.95,10.0,NNE,9.2,-,N/A,,Clear,20,2013-08-21 23:33:00
6:53 PM,84.2,59.0,42,29.96,10.0,NNE,8.1,-,N/A,,Clear,20,2013-08-21 23:53:00
7:14 PM,82.4,60.8,48,29.97,10.0,North,5.8,-,N/A,,Clear,10,2013-08-22 00:14:00
7:33 PM,80.6,62.6,54,29.97,10.0,North,9.2,-,N/A,,Clear,360,2013-08-22 00:33:00
7:53 PM,78.8,60.8,54,29.98,10.0,North,5.8,-,N/A,,Clear,10,2013-08-22 00:53:00
8:14 PM,77.0,60.8,57,29.98,10.0,NNE,4.6,-,N/A,,Clear,20,2013-08-22 01:14:00
8:33 PM,75.2,62.6,65,29.99,10.0,NE,5.8,-,N/A,,Clear,40,2013-08-22 01:33:00
8:53 PM,73.4,62.6,69,29.99,10.0,NE,5.8,-,N/A,,Clear,40,2013-08-22 01:53:00
9:14 PM,71.6,62.6,73,29.99,10.0,North,5.8,-,N/A,,Clear,10,2013-08-22 02:14:00
9:33 PM,71.6,62.6,73,30.01,10.0,Calm,Calm,-,N/A,,Clear,0,2013-08-22 02:33:00
9:54 PM,71.6,60.8,69,30.00,10.0,North,5.8,-,N/A,,Clear,10,2013-08-22 02:54:00
10:13 PM,71.6,60.8,69,30.01,10.0,NNE,5.8,-,N/A,,Mostly Cloudy,20,2013-08-22 03:13:00
10:33 PM,71.6,62.6,73,30.02,10.0,NNE,4.6,-,N/A,,Mostly Cloudy,20,2013-08-22 03:33:00
10:53 PM,71.6,62.6,73,30.01,10.0,NNE,6.9,-,N/A,,Scattered Clouds,20,2013-08-22 03:53:00
11:13 PM,69.8,60.8,73,30.01,10.0,NNE,6.9,-,N/A,,Clear,20,2013-08-22 04:13:00
11:33 PM,69.8,60.8,73,30.01,10.0,NE,8.1,-,N/A,,Clear,40,2013-08-22 04:33:00
11:53 PM,69.8,60.8,73,30.03,10.0,NE,8.1,-,N/A,,Clear,40,2013-08-22 04:53:00